SCP
0 0 0 0 0 0 0 0 0 0 0 0 0 0 -0 0 -0 -0 -0 -0 -0 -0 -0 -0 -0 -0 -0 -0 -0 -0 -0 -0
0 0 0 0 0 0 0 0 0 0 0 0 1 0 0 0 -0 -0 -0 -0 -0 -0 -0 -0 -0 -0 -0 -0 -0 -0 -0 -0
0 0 0 0 0 0 0 0 0 0 0 1 1 0 0 0 0 -0 -0 -0 -0 -0 -0 -0 -0 -0 -0 -0 -0 -0 -0 -0
0 0 0 0 0 0 0 0 0 0 0 1 1 0 0 0 -0 -0 -0 -0 -0 -0 -0 -0 -0 -0 -0 -0 -0 -0 -0 -0
0 0 0 0 0 0 0 0 0 0 0 1 0 0 0 0 0 0 -0 -0 -0 -0 -0 -0 -0 -0 -0 -0 -0 -0 -0 -0
0 0 0 0 0 0 0 0 0 1 0 1 0 0 0 0 0 0 0 -0 -0 -0 -0 -0 -0 -0 -0 -0 -0 -0 -0 -0
0 0 0 0 0 0 0 0 1 1 2 1 0 0 0 0 0 0 0 0 -0 -0 -0 -0 -0 -0 -0 -0 -0 -0 0 0
0 0 0 0 0 0 0 0 1 1 1 0 0 0 0 -0 0 0 -0 0 -0 -0 -0 0 0 -0 -0 0 0 0 0 0
0 0 0 0 0 0 0 0 1 1 1 0 0 0 -0 -0 0 0 0 0 0 0 0 0 0 0 0 0 0 0 0 0
0 0 0 0 0 0 0 0 1 2 1 0 0 0 0 0 0 0 0 0 0 0 0 0 0 0 0 0 0 0 0 0
0 0 0 0 0 0 0 0 1 1 1 1 1 0 0 0 0 -0 -0 0 0 0 0 0 0 0 0 0 0 0 0 0
0 0 0 0 0 0 0 1 2 1 2 2 1 1 1 0 -0 -0 -0 0 -0 -0 0 -0 -0 0 0 0 0 0 0 0
0 0 0 0 0 0 0 2 2 1 2 3 2 1 0 0 0 0 -0 0 0 0 0 0 0 0 0 0 0 0 0 0
0 0 0 0 0 0 0 2 2 2 2 3 2 1 1 1 1 1 0 0 0 0 0 0 0 0 0 0 0 0 0 0
0 0 0 0 0 0 0 2 3 2 3 3 2 2 1 1 2 1 1 1 1 0 0 0 0 0 0 0 0 0 1 1
0 0 0 0 0 0 0 0 1 1 1 1 0 0 0 0 0 1 1 2 2 1 1 0 0 0 0 0 1 1 1 2
0 0 0 0 0 0 0 0 0 0 0 0 0 0 0 0 0 0 1 1 1 1 1 0 0 0 0 0 1 1 3 4
0 0 0 0 0 0 0 0 0 0 0 0 0 0 0 0 0 0 0 1 1 1 1 1 1 1 1 1 2 2 2 2
0 0 0 0 0 0 0 0 0 0 0 0 0 0 0 0 0 1 1 1 1 1 1 1 1 1 1 2 1 1 0 0
0 0 0 0 0 0 0 0 0 0 0 0 0 0 0 0 0 0 0 1 1 2 2 1 1 1 1 1 1 0 0 0
Wind_Speed_500mb
12 25 30 24 21 20 7 4 13 14 4 11 13 18 32 35 54 53 51 52 50 44 38 33 30 26 27 30 31 30 32 35
21 31 36 11 17 14 10 11 16 18 19 17 8 16 19 50 56 54 50 48 50 45 39 33 29 25 24 29 31 32 34 36
31 43 35 15 13 7 11 6 20 26 19 16 9 16 42 52 54 55 51 48 51 46 40 34 30 24 22 26 29 31 32 32
37 46 38 23 23 13 17 7 16 19 27 17 17 32 45 52 52 50 52 49 52 47 41 34 30 25 20 21 25 27 28 27
45 43 40 37 28 24 19 8 16 17 22 17 26 35 47 51 50 49 48 48 52 48 44 36 30 25 21 18 18 20 22 23
52 43 49 44 28 23 18 7 6 15 18 20 40 43 48 50 49 49 47 46 47 47 44 39 34 28 24 21 18 17 17 18
67 53 43 44 34 30 11 15 7 7 5 24 52 49 52 55 52 49 46 45 43 42 40 36 34 34 31 27 23 20 19 17
48 41 37 37 42 36 24 19 17 15 24 44 52 54 59 59 61 57 53 48 44 43 40 37 32 35 34 31 28 25 22 20
22 18 41 30 38 31 32 28 25 26 34 45 51 53 55 53 54 55 51 48 46 46 43 36 30 32 30 27 26 27 25 23
26 34 30 33 37 31 36 13 13 21 35 43 49 53 55 53 51 51 52 49 45 44 45 40 28 27 25 25 24 21 23 26
42 38 28 16 32 30 33 12 15 33 39 41 44 45 44 45 44 46 47 45 45 43 45 42 37 26 25 26 24 20 21 22
52 35 26 23 18 27 21 21 27 39 43 42 42 42 40 40 41 41 41 40 38 40 44 42 36 32 27 25 21 22 19 20
51 45 22 18 16 20 27 32 37 42 41 39 37 36 35 36 36 35 34 34 39 40 39 40 37 28 27 21 25 17 16 17
52 48 36 32 31 19 24 36 39 41 42 38 35 35 28 27 28 27 26 33 35 32 32 34 31 31 23 25 23 15 16 15
52 51 34 33 44 27 26 32 36 39 41 38 34 30 28 26 25 26 26 26 31 34 25 29 34 25 25 24 17 14 16 15
45 47 49 39 35 42 25 32 36 39 37 34 31 28 24 22 24 26 27 28 30 30 27 22 16 19 13 11 8 10 10 9
51 36 53 45 36 27 42 35 36 37 37 38 36 26 19 17 23 29 32 35 34 31 25 22 18 16 15 12 14 9 12 21
43 31 41 46 42 28 46 38 35 35 33 33 30 24 19 15 17 21 28 34 36 31 28 25 21 22 17 15 17 23 26 30
42 34 37 44 39 39 29 51 62 49 31 24 28 25 23 20 17 20 23 27 29 31 27 24 22 20 18 16 16 5 7 6
38 42 32 38 32 44 40 35 37 47 42 41 28 21 18 18 19 19 22 23 24 25 23 17 15 15 18 12 14 12 9 7
Wind_Direction_500mb
223 232 241 229 173 169 173 224 193 142 136 95 92 107 134 156 151 154 156 161 160 156 153 152 154 159 166 170 173 169 162 160
235 222 227 272 193 134 242 166 181 147 110 103 113 138 156 149 153 153 157 160 161 159 158 157 155 152 156 162 167 166 165 165
222 231 227 186 242 210 253 176 166 189 135 112 96 132 148 152 155 155 159 163 164 164 164 165 158 154 153 164 168 170 171 171
216 222 223 216 228 247 247 175 148 191 139 112 131 137 151 154 157 160 159 164 169 168 170 172 168 164 160 162 172 175 178 182
220 222 213 221 218 242 231 208 146 146 147 132 147 154 153 157 160 163 163 163 172 173 175 177 178 178 175 172 170 176 187 194
234 222 219 216 220 221 247 194 148 181 169 172 166 157 156 160 164 167 167 169 171 177 179 181 185 190 192 190 187 183 190 200
218 222 219 196 221 203 223 242 178 179 122 154 161 155 158 161 167 170 172 174 175 176 180 179 189 195 198 202 205 205 205 209
223 208 252 212 214 209 216 209 203 155 126 141 151 158 163 168 171 174 176 177 182 179 184 183 187 202 204 209 213 214 218 225
198 195 229 218 219 202 218 215 206 187 160 156 159 161 168 171 177 178 178 179 185 187 192 187 192 201 200 206 209 219 223 230
194 198 210 216 210 205 219 214 180 185 172 166 167 169 173 173 179 180 183 183 186 191 197 191 193 198 205 203 208 210 221 232
197 198 203 193 206 207 208 219 184 164 168 170 169 169 172 175 181 185 188 187 189 194 202 203 198 197 200 200 209 213 222 236
213 198 185 212 191 184 173 185 163 165 165 169 170 168 172 180 183 189 189 192 192 197 205 207 202 201 213 210 213 213 223 229
215 208 202 206 184 207 161 178 168 168 166 173 174 174 178 183 185 188 192 191 200 204 210 211 207 210 213 220 232 218 226 242
200 208 211 203 189 181 171 175 173 170 166 171 173 172 178 185 186 192 194 203 205 201 212 216 222 220 221 234 240 237 238 239
188 201 186 205 197 164 173 184 172 170 168 172 174 180 188 196 193 194 196 192 203 207 205 219 225 221 231 241 246 235 223 244
198 188 213 197 215 166 177 197 176 182 182 181 183 187 194 200 201 200 194 192 190 191 205 213 213 216 203 201 199 209 223 244
204 182 201 201 203 219 184 205 174 173 172 175 180 177 186 192 194 198 199 206 205 212 218 209 207 189 193 198 203 226 238 240
188 159 202 204 202 195 194 201 197 185 181 185 184 188 183 173 171 178 192 198 207 209 211 204 204 197 194 205 225 236 270 274
183 177 205 192 203 196 189 201 207 222 208 201 201 194 179 172 170 170 176 187 189 197 206 203 205 216 227 211 243 183 239 244
180 179 182 188 197 197 194 197 203 197 200 197 207 204 197 181 172 171 173 175 187 198 204 204 195 191 173 182 159 159 122 61
Wind_Speed_850mb
12 25 30 24 21 20 7 4 13 14 4 11 13 18 32 35 54 53 51 52 50 44 38 33 30 26 27 30 31 30 32 35
21 31 36 11 17 14 10 11 16 18 19 17 8 16 19 50 56 54 50 48 50 45 39 33 29 25 24 29 31 32 34 36
31 43 35 15 13 7 11 6 20 26 19 16 9 16 42 52 54 55 51 48 51 46 40 34 30 24 22 26 29 31 32 32
37 46 38 23 23 13 17 7 16 19 27 17 17 32 45 52 52 50 52 49 52 47 41 34 30 25 20 21 25 27 28 27
45 43 40 37 28 24 19 8 16 17 22 17 26 35 47 51 50 49 48 48 52 48 44 36 30 25 21 18 18 20 22 23
52 43 49 44 28 23 18 7 6 15 18 20 40 43 48 50 49 49 47 46 47 47 44 39 34 28 24 21 18 17 17 18
67 53 43 44 34 30 11 15 7 7 5 24 52 49 52 55 52 49 46 45 43 42 40 36 34 34 31 27 23 20 19 17
48 41 37 37 42 36 24 19 17 15 24 44 52 54 59 59 61 57 53 48 44 43 40 37 32 35 34 31 28 25 22 20
22 18 41 30 38 31 32 28 25 26 34 45 51 53 55 53 54 55 51 48 46 46 43 36 30 32 30 27 26 27 25 23
26 34 30 33 37 31 36 13 13 21 35 43 49 53 55 53 51 51 52 49 45 44 45 40 28 27 25 25 24 21 23 26
42 38 28 16 32 30 33 12 15 33 39 41 44 45 44 45 44 46 47 45 45 43 45 42 37 26 25 26 24 20 21 22
52 35 26 23 18 27 21 21 27 39 43 42 42 42 40 40 41 41 41 40 38 40 44 42 36 32 27 25 21 22 19 20
51 45 22 18 16 20 27 32 37 42 41 39 37 36 35 36 36 35 34 34 39 40 39 40 37 28 27 21 25 17 16 17
52 48 36 32 31 19 24 36 39 41 42 38 35 35 28 27 28 27 26 33 35 32 32 34 31 31 23 25 23 15 16 15
52 51 34 33 44 27 26 32 36 39 41 38 34 30 28 26 25 26 26 26 31 34 25 29 34 25 25 24 17 14 16 15
45 47 49 39 35 42 25 32 36 39 37 34 31 28 24 22 24 26 27 28 30 30 27 22 16 19 13 11 8 10 10 9
51 36 53 45 36 27 42 35 36 37 37 38 36 26 19 17 23 29 32 35 34 31 25 22 18 16 15 12 14 9 12 21
43 31 41 46 42 28 46 38 35 35 33 33 30 24 19 15 17 21 28 34 36 31 28 25 21 22 17 15 17 23 26 30
42 34 37 44 39 39 29 51 62 49 31 24 28 25 23 20 17 20 23 27 29 31 27 24 22 20 18 16 16 5 7 6
38 42 32 38 32 44 40 35 37 47 42 41 28 21 18 18 19 19 22 23 24 25 23 17 15 15 18 12 14 12 9 7
Wind_Direction_850mb
223 232 241 229 173 169 173 224 193 142 136 95 92 107 134 156 151 154 156 161 160 156 153 152 154 159 166 170 173 169 162 160
235 222 227 272 193 134 242 166 181 147 110 103 113 138 156 149 153 153 157 160 161 159 158 157 155 152 156 162 167 166 165 165
222 231 227 186 242 210 253 176 166 189 135 112 96 132 148 152 155 155 159 163 164 164 164 165 158 154 153 164 168 170 171 171
216 222 223 216 228 247 247 175 148 191 139 112 131 137 151 154 157 160 159 164 169 168 170 172 168 164 160 162 172 175 178 182
220 222 213 221 218 242 231 208 146 146 147 132 147 154 153 157 160 163 163 163 172 173 175 177 178 178 175 172 170 176 187 194
234 222 219 216 220 221 247 194 148 181 169 172 166 157 156 160 164 167 167 169 171 177 179 181 185 190 192 190 187 183 190 200
218 222 219 196 221 203 223 242 178 179 122 154 161 155 158 161 167 170 172 174 175 176 180 179 189 195 198 202 205 205 205 209
223 208 252 212 214 209 216 209 203 155 126 141 151 158 163 168 171 174 176 177 182 179 184 183 187 202 204 209 213 214 218 225
198 195 229 218 219 202 218 215 206 187 160 156 159 161 168 171 177 178 178 179 185 187 192 187 192 201 200 206 209 219 223 230
194 198 210 216 210 205 219 214 180 185 172 166 167 169 173 173 179 180 183 183 186 191 197 191 193 198 205 203 208 210 221 232
197 198 203 193 206 207 208 219 184 164 168 170 169 169 172 175 181 185 188 187 189 194 202 203 198 197 200 200 209 213 222 236
213 198 185 212 191 184 173 185 163 165 165 169 170 168 172 180 183 189 189 192 192 197 205 207 202 201 213 210 213 213 223 229
215 208 202 206 184 207 161 178 168 168 166 173 174 174 178 183 185 188 192 191 200 204 210 211 207 210 213 220 232 218 226 242
200 208 211 203 189 181 171 175 173 170 166 171 173 172 178 185 186 192 194 203 205 201 212 216 222 220 221 234 240 237 238 239
188 201 186 205 197 164 173 184 172 170 168 172 174 180 188 196 193 194 196 192 203 207 205 219 225 221 231 241 246 235 223 244
198 188 213 197 215 166 177 197 176 182 182 181 183 187 194 200 201 200 194 192 190 191 205 213 213 216 203 201 199 209 223 244
204 182 201 201 203 219 184 205 174 173 172 175 180 177 186 192 194 198 199 206 205 212 218 209 207 189 193 198 203 226 238 240
188 159 202 204 202 195 194 201 197 185 181 185 184 188 183 173 171 178 192 198 207 209 211 204 204 197 194 205 225 236 270 274
183 177 205 192 203 196 189 201 207 222 208 201 201 194 179 172 170 170 176 187 189 197 206 203 205 216 227 211 243 183 239 244
180 179 182 188 197 197 194 197 203 197 200 197 207 204 197 181 172 171 173 175 187 198 204 204 195 191 173 182 159 159 122 61